TimeEST,TemperatureF,Dew PointF,Humidity,Sea Level PressureIn,VisibilityMPH,Wind Direction,Wind SpeedMPH,Gust SpeedMPH,PrecipitationIn,Events,Conditions,WindDirDegrees,DateUTC
5:55 AM,39.2,26.6,61,29.95,7.0,NNW,5.8,-,N/A,,Overcast,340,2012-11-07 10:55:00
6:50 AM,39.2,28.4,65,29.97,7.0,North,4.6,-,N/A,,Overcast,350,2012-11-07 11:50:00
7:45 AM,39.2,28.4,65,29.96,7.0,NNW,5.8,-,N/A,,Overcast,340,2012-11-07 12:45:00
8:50 AM,39.2,26.6,61,29.94,7.0,NNW,8.1,-,N/A,,Overcast,330,2012-11-07 13:50:00
9:45 AM,41.0,26.6,57,29.94,7.0,NNW,8.1,-,N/A,,Overcast,330,2012-11-07 14:45:00
10:45 AM,42.8,28.4,57,29.93,7.0,NNW,6.9,-,N/A,,Overcast,330,2012-11-07 15:45:00
11:45 AM,44.6,28.4,53,29.92,7.0,NNW,6.9,-,N/A,,Overcast,330,2012-11-07 16:45:00
12:45 PM,42.8,28.4,57,29.92,5.0,NNW,9.2,-,N/A,,Haze,340,2012-11-07 17:45:00
1:45 PM,42.8,30.2,61,29.91,5.0,NNW,11.5,16.1,N/A,,Haze,330,2012-11-07 18:45:00
2:45 PM,44.6,30.2,57,29.89,5.0,NW,11.5,17.3,N/A,,Drizzle,320,2012-11-07 19:45:00
3:54 PM,41.0,32.0,70,29.90,7.0,NW,12.7,21.9,N/A,,Drizzle,320,2012-11-07 20:54:00
4:54 PM,41.0,32.0,70,29.91,7.0,NW,6.9,-,N/A,,Drizzle,320,2012-11-07 21:54:00
5:45 PM,42.8,32.0,66,29.92,7.0,NW,11.5,-,N/A,,Light Drizzle,310,2012-11-07 22:45:00
6:55 PM,44.6,28.4,53,29.91,7.0,NW,9.2,-,N/A,,Overcast,320,2012-11-07 23:55:00
7:45 PM,41.0,32.0,70,29.91,7.0,NW,6.9,-,N/A,Rain,Light Rain,320,2012-11-08 00:45:00
8:54 PM,41.0,32.0,70,29.92,7.0,NW,8.1,-,N/A,Rain,Rain,320,2012-11-08 01:54:00
9:45 PM,39.2,35.6,87,29.91,7.0,NW,10.4,19.6,N/A,Rain,Light Rain,320,2012-11-08 02:45:00
10:21 PM,37.4,33.8,87,29.91,10.0,NW,11.5,-,0.01,Rain,Light Rain,310,2012-11-08 03:21:00
10:42 PM,37.4,33.8,87,29.91,10.0,NW,13.8,20.7,0.02,Rain,Light Rain,310,2012-11-08 03:42:00
11:03 PM,37.4,33.8,87,29.89,10.0,WNW,12.7,19.6,N/A,Rain,Light Rain,300,2012-11-08 04:03:00
11:24 PM,37.4,33.8,87,29.89,10.0,WNW,13.8,21.9,N/A,Rain,Light Rain,300,2012-11-08 04:24:00
11:45 PM,37.4,33.8,87,29.89,10.0,WNW,11.5,17.3,N/A,Rain,Light Rain,300,2012-11-08 04:45:00